Anniston, AL

12:03 AM CST on December 16, 2019 (GMT -0600)
Anniston Metro

Weather History for KANB - November, 2019

Change the Weather History Date:

Tuesday, November 12, 2019

  Actual Average Record
Temperature  
Mean Temperature 41 °F 55 °F  
Max Temperature 59 °F 67 °F 80 °F (1955)
Min Temperature 22 °F 43 °F 21 °F (1950)
Degree Days  
Heating Degree Days 24    
Month to date heating degree days 171  
Since 1 July heating degree days 262  
Moisture  
Dew Point 31 °F    
Average Humidity 76    
Maximum Humidity 100    
Minimum Humidity 51    
Precipitation  
Precipitation 0.50 in 0.15 in 3.91 in (2018)
Month to date precipitation 1.36 1.67  
Year to date precipitation 47.12 42.64  
Sea Level Pressure  
Sea Level Pressure 30.19 in    
Wind  
Wind Speed 9 mph (North)    
Max Wind Speed 21 mph    
Max Gust Speed 29 mph    
Visibility 9 miles    
Events Rain    
T = Trace of Precipitation, MM = Missing Value Source: NWS Daily Summary

Daily Weather History Graph

Daily Weather History Graph

Search for Another Location

Airport or City:

Astronomy

Nov. 12, 2019 Rise Set
Actual Time 6:12 AM CST 4:42 PM CST
Civil Twilight 5:45 AM CST 5:08 PM CST
Nautical Twilight 5:15 AM CST 5:38 PM CST
Astronomical Twilight 4:46 AM CST 6:08 PM CST
Moon 5:08 PM CST (11/12) 6:05 AM CST (11/12)
Length of Visible Light 11h 22m
Length of Day
10h 30m
Full, 100% of the Moon is Illuminated
Nov 12
Full
Nov 19
Last Quarter
Nov 26
New
Dec 4
First Quarter
Dec 11
Full

Hourly Weather History & Observations

Time (CST) Temp. Windchill Dew Point Humidity Pressure Visibility Wind Dir Wind Speed Gust Speed Precip Events Conditions
12:40 AM 57.9 °F - 57.0 °F 97% 29.94 in 5.0 mi Calm Calm - 0.01 in Rain Light Rain
12:53 AM 59.0 °F - 57.0 °F 93% 29.93 in 8.0 mi Calm Calm - 0.01 in Rain Light Rain
1:25 AM 55.9 °F - 54.0 °F 93% 29.94 in 2.5 mi North 13.8 mph - 0.10 in Rain Rain
1:32 AM 55.9 °F - 53.1 °F 90% 29.94 in 4.0 mi North 12.7 mph - 0.11 in Rain Light Rain
1:46 AM 55.9 °F - 53.1 °F 90% 29.94 in 5.0 mi North 12.7 mph 21.9 mph 0.12 in Rain Light Rain
2:20 AM 48.0 °F - 44.1 °F 86% 30.00 in 4.0 mi Variable 5.8 mph 19.6 mph 0.06 in Rain Rain
2:53 AM 44.1 °F 40.8 °F 41.0 °F 89% 30.03 in 5.0 mi Variable 5.8 mph - 0.14 in Rain Light Rain
3:02 AM 44.1 °F 40.1 °F 39.9 °F 85% 30.03 in 7.0 mi WNW 6.9 mph - 0.01 in Rain Light Rain
3:43 AM 42.1 °F 38.4 °F 37.9 °F 85% 30.06 in 7.0 mi Variable 5.8 mph 25.3 mph 0.13 in Rain Light Rain
3:53 AM 41.0 °F - 37.0 °F 86% 30.07 in 10.0 mi North - - 0.14 in Rain Light Rain
4:12 AM 41.0 °F 35.8 °F 37.0 °F 86% 30.08 in 10.0 mi NW 8.1 mph 21.9 mph 0.01 in Rain Light Rain
4:53 AM 39.0 °F 33.4 °F 35.1 °F 86% 30.11 in 10.0 mi North 8.1 mph 21.9 mph 0.04 in Rain Light Rain
5:53 AM 37.9 °F 31.5 °F 33.1 °F 83% 30.17 in 10.0 mi North 9.2 mph 20.7 mph 0.02 in Rain Light Rain
6:08 AM 37.0 °F 28.1 °F 33.1 °F 86% 30.15 in 9.0 mi North 15.0 mph 19.6 mph 0.01 in Rain Light Rain
6:53 AM 36.0 °F 26.7 °F 30.9 °F 82% 30.20 in 10.0 mi North 15.0 mph 21.9 mph 0.02 in   Overcast
7:50 AM 33.8 °F 25.3 °F 28.4 °F 81% 30.21 in 10.0 mi NW 11.5 mph 23.0 mph N/A   Overcast
7:53 AM 34.0 °F 25.0 °F 28.9 °F 82% 30.23 in 10.0 mi NNW 12.7 mph 19.6 mph N/A   Overcast
8:53 AM 33.1 °F 24.9 °F 27.0 °F 78% 30.26 in 10.0 mi North 10.4 mph - N/A   Overcast
9:53 AM 33.1 °F 24.9 °F 26.1 °F 75% 30.28 in 10.0 mi North 10.4 mph 18.4 mph N/A   Overcast
10:53 AM 33.1 °F 23.4 °F 25.0 °F 72% 30.28 in 10.0 mi North 13.8 mph 18.4 mph N/A   Overcast
11:53 AM 30.9 °F 21.7 °F 24.1 °F 76% 30.29 in 10.0 mi NW 11.5 mph 20.7 mph N/A   Overcast
12:53 PM 32.0 °F 24.8 °F 23.0 °F 69% 30.28 in 10.0 mi NW 8.1 mph 19.6 mph N/A   Overcast
1:53 PM 34.0 °F 23.8 °F 21.9 °F 61% 30.28 in 10.0 mi NNW 16.1 mph 24.2 mph N/A   Overcast
2:53 PM 34.0 °F 28.0 °F 19.9 °F 56% 30.29 in 10.0 mi North 6.9 mph 18.4 mph N/A   Scattered Clouds
3:53 PM 33.1 °F 25.5 °F 17.1 °F 52% 30.32 in 10.0 mi NNW 9.2 mph 21.9 mph N/A   Clear
4:53 PM 30.0 °F 22.4 °F 17.1 °F 59% 30.33 in 10.0 mi North 8.1 mph - N/A   Clear
5:53 PM 28.9 °F 22.8 °F 16.0 °F 58% 30.35 in 10.0 mi NNE 5.8 mph - N/A   Clear
6:53 PM 28.0 °F 17.5 °F 15.1 °F 58% 30.35 in 10.0 mi North 12.7 mph 19.6 mph N/A   Clear
7:53 PM 27.0 °F 16.1 °F 16.0 °F 63% 30.38 in 10.0 mi North 12.7 mph 19.6 mph N/A   Clear
8:53 PM 26.1 °F 16.2 °F 15.1 °F 63% 30.39 in 10.0 mi NNE 10.4 mph 20.7 mph N/A   Clear
9:53 PM 24.1 °F 13.7 °F 15.1 °F 69% 30.40 in 10.0 mi NE 10.4 mph - N/A   Clear
10:53 PM 23.0 °F 13.9 °F 15.1 °F 72% 30.39 in 10.0 mi NNE 8.1 mph - N/A   Clear
11:53 PM 21.9 °F 13.4 °F 15.1 °F 75% 30.38 in 10.0 mi Variable 6.9 mph - N/A   Clear